Home   Weather   Lappeenranta   Past weeks

Flag for Finland Past Weather in Lappeenranta, Finland — Yesterday and Last 2 Weeks

32 °F

Light rain. Partly cloudy.

Feels Like: 27 °F
Forecast: 28 / 44 °F
Wind: 5 mph from West

Location: Lappeenranta

Current Time: Oct 26, 2016 at 10:18:55 PM

Latest Report: Oct 26, 2016 at 9:50 PM

Visibility: 4 mi

Pressure: 30.07 "Hg

Humidity: 100%

Dew Point: 32 °F

Location of LappeenrantaLocation

Past Weather in Lappeenranta — Graph


Lappeenranta Temperature Yesterday

Maximum temperature yesterday: 34 °F (at 12:20 AM)
Minimum temperature yesterday: 28 °F (at 8:20 AM)
Average temperature yesterday: 31 °F

High & Low Weather Summary for the Past Weeks

High43 °F (Oct 16, 12:20 PM)100% (Oct 12, 10:20 AM)30.72 "Hg (Oct 12, 10:20 AM)
Low27 °F (Oct 20, 3:20 AM)57% (Oct 23, 3:50 PM)30.04 "Hg (Oct 26, 6:50 AM)
Average36 °F85%30.52 "Hg
* Reported Oct 11 8:20 PM — Oct 26 8:50 PM, Lappeenranta, Weather by CustomWeather, © 2016

Note: Actual official high and low records may vary slightly from our data, if they occured in-between our weather recording intervals... More about our weather records


Lappeenranta Weather History for the Previous 24 Hours

Scroll right to see more
Time TempWeatherWind HumidityBarometerVisibility
8:50 PM
Wed, Oct 26
32 °FLight rain. Partly cloudy.2 mph100%30.07 "Hg3 mi
8:20 PM32 °FLight rain. Partly cloudy.2 mph100%30.07 "Hg2 mi
7:50 PM32 °FLight rain. Ice fog.2 mph100%30.07 "Hg2 mi
7:20 PM32 °FLight rain. Mostly cloudy.2 mph100%30.07 "Hg2 mi
6:50 PM32 °FLight rain. Passing clouds.2 mph100%30.07 "Hg1 mi
6:20 PM32 °FLight rain. Partly cloudy.3 mph100%30.07 "Hg3 mi
5:50 PM32 °FSprinkles. Ice fog.3 mph100%30.07 "Hg2 mi
5:20 PM32 °FSnow flurries. Ice fog.2 mph100%30.07 "Hg2 mi
4:50 PM32 °FLight rain. Ice fog.2 mph100%30.07 "Hg2 mi
4:20 PM32 °FLight rain. Low clouds.2 mph100%30.07 "Hg1 mi
3:50 PM32 °FLight rain. Low clouds.2 mph100%30.07 "Hg1 mi
3:20 PM32 °FLight rain. Cloudy.1 mph100%30.07 "Hg1 mi
2:50 PM32 °FRain. Mostly cloudy.No wind100%30.07 "Hg1 mi
2:20 PM32 °FLight rain. Cloudy.No wind100%30.07 "Hg1 mi
1:50 PM32 °FSprinkles. Cloudy.No wind100%30.04 "Hg2 mi
1:20 PM32 °FSprinkles. Broken clouds.No wind100%30.04 "Hg2 mi
12:50 PM32 °FSprinkles. Partly sunny.No wind100%30.04 "Hg5 mi
12:20 PM32 °FSprinkles. Low clouds.1 mph100%30.07 "Hg4 mi
11:50 AM32 °FSprinkles. Mostly cloudy.1 mph93%30.07 "Hg4 mi
11:20 AM32 °FLight rain. Partly sunny.1 mph100%30.07 "Hg4 mi
10:50 AM32 °FLight snow. Partly sunny.1 mph100%30.07 "Hg5 mi
10:20 AM32 °FLight snow. Low clouds.3 mph93%30.07 "Hg4 mi
9:50 AM32 °FLow clouds.2 mph93%30.07 "Hg6 mi
9:20 AM32 °FLow clouds.2 mph93%30.07 "Hg4 mi
8:50 AM32 °FLow clouds.3 mph100%30.07 "Hg4 mi
8:20 AM32 °FMostly cloudy.2 mph100%30.04 "Hg3 mi
7:50 AM32 °FSnow flurries. Ice fog.2 mph100%30.07 "Hg1 mi
7:20 AM32 °FLight snow. Low clouds.2 mph100%30.04 "Hg4 mi
6:50 AM32 °FLow clouds.3 mph100%30.04 "HgN/A
6:20 AM32 °FLow clouds.2 mph100%30.07 "HgN/A
5:50 AM32 °FLow clouds.1 mph100%30.07 "HgN/A
5:20 AM32 °FLow clouds.3 mph100%30.07 "HgN/A
4:50 AM32 °FLow clouds.5 mph100%30.07 "HgN/A
4:20 AM32 °FLow clouds.3 mph100%30.07 "HgN/A
3:50 AM32 °FLow clouds.5 mph100%30.07 "HgN/A
3:20 AM32 °FLow clouds.5 mph100%30.07 "HgN/A
2:50 AM32 °FLow clouds.3 mph100%30.09 "HgN/A
2:20 AM32 °FLow clouds.6 mph100%30.09 "HgN/A
1:50 AM32 °FLow clouds.6 mph100%30.09 "HgN/A
1:20 AM32 °FLow clouds.6 mph100%30.09 "HgN/A
12:50 AM32 °FLow clouds.3 mph100%30.09 "HgN/A
12:20 AM32 °FSprinkles. Low clouds.5 mph100%30.12 "HgN/A
11:50 PM
Tue, Oct 25
32 °FLight rain. Low clouds.6 mph100%30.12 "Hg6 mi
11:20 PM32 °FLight rain. Low clouds.5 mph100%30.12 "Hg2 mi
10:50 PM32 °FLight rain. Low clouds.5 mph100%30.12 "Hg2 mi
10:20 PM32 °FLight rain. Mostly cloudy.6 mph100%30.15 "Hg1 mi
Weather by CustomWeather, © 2016

See weather overviewHow to use our weather pages